RH
32 36 36 37 38 37 36 32 28 23 19 15 12 9 7 5 5 5 4 4 4 4 3 4 3 3 3 3 3 3 4 6 6 8 9 6 8 12 15 20 21 21 33 51 62 78 96 99 97 100 95 87 78 61 49 49 49 49 58 70 79 80 79 75 60 42 33 31 29 24 19 15 14 16 14 9 6 4 5 10 14 17 19 23 28
26 35 36 36 36 36 35 33 28 24 21 17 14 10 7 5 4 4 4 3 3 3 3 3 3 3 3 2 3 3 3 4 5 6 8 9 6 8 14 17 20 21 22 34 45 50 70 94 99 100 100 96 91 77 60 56 58 57 59 68 80 86 87 81 67 51 40 35 33 26 17 12 11 13 14 10 7 6 7 10 13 18 22 24 25
22 33 36 35 35 34 33 32 28 25 22 20 17 12 8 5 4 3 3 3 2 2 3 3 3 3 3 3 3 3 2 2 4 5 5 9 9 6 10 14 19 22 18 25 33 27 48 89 102 100 101 99 98 91 76 67 65 64 64 68 77 85 88 85 74 59 45 36 34 30 21 13 9 11 14 13 10 8 8 11 16 19 22 23 24
21 31 35 35 35 34 32 31 29 26 23 21 18 15 10 6 5 4 3 3 3 1 2 5 6 6 5 4 3 3 4 2 2 5 4 5 9 8 8 11 16 21 19 22 23 21 54 98 102 97 103 100 99 98 87 77 70 68 71 72 74 78 83 88 84 73 63 50 38 30 22 17 13 11 13 13 12 11 12 14 17 19 20 21 20
27 33 36 35 34 33 31 30 28 25 24 22 20 17 13 7 5 5 4 3 2 3 8 16 20 20 17 15 10 3 3 4 2 4 4 4 7 8 9 9 13 19 19 21 21 19 51 93 99 97 102 99 100 100 88 79 74 73 75 74 76 79 83 89 87 83 85 77 62 48 33 24 21 17 14 13 13 15 18 21 21 20 19 18 19
36 38 38 36 34 32 32 30 28 26 24 22 21 18 14 8 5 4 4 4 4 10 23 32 36 37 35 36 30 15 6 5 3 3 3 3 5 6 9 9 10 17 18 19 22 16 31 72 96 99 100 100 101 100 89 82 80 76 74 75 77 78 84 93 92 88 92 94 92 80 54 36 32 26 19 19 21 26 28 26 22 20 19 21 28
41 42 40 38 34 32 33 32 29 27 25 23 23 20 15 9 5 4 4 3 8 25 40 44 43 41 41 48 51 41 24 10 4 5 3 3 4 4 8 9 8 14 18 18 22 15 23 67 98 98 97 100 100 99 95 89 83 77 73 74 75 78 87 96 94 91 93 97 98 86 65 54 54 50 46 44 40 36 30 23 22 28 34 42 53
40 41 39 37 36 33 32 32 30 27 25 24 23 19 15 10 4 4 5 2 12 36 52 51 47 43 40 45 56 59 46 25 10 6 3 3 4 3 5 9 8 12 16 18 22 15 23 71 103 92 86 96 99 99 101 97 88 79 73 69 69 75 83 86 85 89 93 93 91 83 74 74 77 76 70 59 42 30 31 40 52 61 67 69 72
41 40 37 35 35 34 32 31 29 27 26 24 22 18 12 8 3 3 5 4 13 37 55 55 52 49 45 46 52 58 58 46 26 14 7 3 3 3 4 7 8 11 14 18 21 15 22 66 98 86 77 91 100 99 100 100 95 83 71 66 64 67 74 77 80 86 86 84 89 94 92 90 89 81 66 52 40 38 54 76 88 90 86 79 72
42 39 36 35 34 32 31 29 28 26 23 20 18 13 8 5 3 4 4 5 14 34 52 58 57 56 56 54 52 51 54 56 45 29 14 4 2 2 2 5 7 9 13 16 19 17 19 48 86 94 92 98 100 99 100 101 97 84 71 66 64 66 76 80 78 80 80 79 84 91 95 97 94 85 75 66 57 59 77 93 98 94 85 74 67
43 39 35 32 28 24 23 22 21 19 16 14 11 8 5 3 2 4 4 5 17 35 49 58 61 61 63 63 59 53 48 51 54 46 25 7 3 2 1 5 7 8 12 15 17 18 15 35 78 105 107 96 86 91 103 101 92 81 70 64 59 64 77 80 74 77 83 84 82 84 89 93 87 75 68 68 68 76 91 98 96 89 78 69 68
42 36 28 23 17 14 13 12 12 11 9 8 6 3 3 3 3 6 5 6 19 34 46 56 59 59 61 63 63 60 51 45 50 54 38 14 3 2 1 3 5 7 11 12 16 19 16 39 83 105 99 83 69 78 99 102 91 83 74 60 54 62 77 79 75 79 84 84 86 90 95 99 90 71 54 54 69 85 92 91 86 79 73 71 72
36 25 18 14 10 9 8 7 7 6 4 4 4 3 4 5 5 6 6 8 18 30 42 53 56 54 54 56 58 61 58 48 44 51 47 25 7 1 1 2 4 7 8 10 17 17 14 42 85 98 93 88 81 85 99 102 97 91 75 61 62 72 82 86 87 88 89 88 88 92 98 101 99 91 77 70 77 83 80 78 75 72 74 76 74
26 16 12 11 10 9 8 7 5 5 4 4 3 3 5 8 12 14 13 14 20 29 40 51 58 56 50 47 49 53 55 50 43 45 50 37 14 1 1 3 3 5 7 11 15 14 19 51 85 95 95 97 94 96 101 100 99 93 75 71 83 86 79 82 87 85 85 88 87 87 95 100 101 101 94 85 80 77 73 72 72 74 79 79 77
18 14 15 14 13 9 8 9 7 6 6 6 8 12 18 25 30 29 25 23 26 34 43 53 57 51 43 40 41 44 47 48 43 41 48 45 24 4 1 2 3 5 8 10 12 15 30 59 83 94 99 97 95 100 102 99 99 91 78 83 98 96 84 83 86 81 79 84 88 90 95 99 99 94 86 80 76 74 73 74 76 81 84 82 82
17 16 18 17 15 12 11 11 11 14 19 24 31 38 41 43 43 38 32 31 34 38 44 48 46 41 39 38 39 41 41 41 40 38 42 47 31 8 0 3 4 4 6 10 10 10 29 60 82 93 99 98 98 101 100 99 100 96 91 93 99 98 96 93 88 83 82 84 87 91 92 91 90 86 80 76 75 75 78 81 84 88 87 84 84
17 18 21 20 16 11 13 15 19 30 43 50 55 55 50 46 43 38 34 35 37 40 45 49 49 49 50 45 40 41 39 37 38 36 38 46 34 10 1 3 4 5 7 7 1 3 34 73 89 90 93 97 100 100 99 101 102 100 100 101 96 91 92 92 87 86 87 86 86 92 95 94 88 82 77 75 76 80 85 88 91 91 85 79 75
18 21 20 19 18 20 34 48 55 60 63 61 57 53 47 43 41 40 41 44 48 51 56 63 65 62 59 50 42 42 40 36 35 33 37 44 32 10 1 3 5 5 3 5 12 31 65 93 96 92 96 100 100 100 99 100 100 99 100 101 98 93 94 97 96 93 93 94 96 99 100 94 85 78 77 78 82 89 92 94 94 87 76 71 69
21 21 21 33 51 65 79 91 90 80 69 61 57 54 52 51 50 52 54 58 64 65 65 69 69 63 59 52 44 42 42 38 34 33 38 42 29 9 1 3 7 5 0 13 43 71 91 99 98 97 99 98 98 100 100 99 100 101 100 99 100 100 100 101 98 96 99 100 97 93 87 80 78 78 81 86 92 96 94 89 83 74 69 70 73
22 23 32 57 85 96 99 102 96 81 70 67 67 68 69 68 67 66 65 68 75 79 77 76 72 65 62 57 49 44 43 41 37 33 37 40 26 6 0 5 7 2 1 19 53 79 92 98 100 99 98 98 100 100 99 99 99 99 100 99 99 100 100 99 94 92 95 92 85 78 74 73 77 83 90 96 97 90 82 75 71 71 75 80 81
26 38 57 76 92 98 101 103 95 82 76 76 79 80 77 75 73 71 72 76 80 82 82 79 76 70 67 66 57 45 41 42 37 32 38 38 19 2 3 6 3 4 12 28 53 77 87 87 86 88 90 94 98 97 98 100 99 99 100 99 99 100 98 94 88 84 83 80 74 70 72 77 86 94 98 97 88 78 72 72 76 81 82 80 78
40 63 82 91 97 101 104 102 94 86 81 80 86 89 82 78 78 77 79 82 82 79 77 80 82 78 73 71 61 46 42 41 33 32 41 36 14 1 3 2 6 24 38 42 51 70 79 77 78 82 81 83 88 92 96 100 100 100 100 100 101 99 90 82 80 78 77 74 71 72 80 89 98 101 96 85 76 72 73 77 82 85 83 80 79
57 80 94 97 100 104 105 98 92 91 85 81 89 97 93 89 86 75 68 69 72 73 76 87 96 91 79 71 62 51 45 37 29 36 45 32 11 1 -1 3 24 52 64 62 63 75 84 85 85 87 86 87 92 94 96 100 101 100 101 102 98 88 78 77 82 84 81 79 78 83 92 100 102 96 85 76 72 70 74 82 88 90 88 87 86
69 90 99 99 100 106 105 96 93 95 88 82 92 101 100 91 79 66 64 68 74 81 87 96 106 101 81 64 56 52 45 34 33 43 45 28 7 -4 1 25 55 76 85 91 91 92 93 89 85 89 94 97 99 98 98 100 100 100 101 96 85 78 79 85 92 93 90 87 87 92 98 101 97 89 81 77 74 72 78 89 94 92 88 86 84
78 97 103 100 101 106 103 97 97 96 87 84 95 104 98 81 70 74 85 90 92 97 99 100 104 97 75 59 57 54 44 38 42 48 43 25 3 -3 20 58 83 91 96 97 92 93 97 95 91 95 98 99 99 99 98 99 99 100 101 93 82 80 87 93 96 95 92 90 90 96 100 98 92 87 85 83 78 77 85 95 97 94 90 87 87
85 100 103 100 103 104 102 100 100 96 90 90 99 103 92 77 77 92 101 99 97 100 101 101 98 84 68 64 66 57 47 48 51 45 35 18 -2 3 41 77 89 95 100 94 88 94 100 98 97 99 99 99 100 98 98 100 100 100 100 96 90 88 91 94 95 93 90 91 93 98 100 96 90 87 87 86 84 86 93 98 100 98 93 90 93
92 101 101 100 101 99 99 102 101 98 98 98 100 101 91 81 87 96 97 96 99 101 101 99 92 85 83 81 72 59 55 57 50 38 29 17 -1 6 43 75 87 95 100 97 95 99 98 97 100 101 99 99 99 98 100 102 101 100 101 99 96 94 93 93 93 92 93 95 95 96 97 95 90 86 87 91 94 94 95 97 101 101 96 95 97
97 100 100 98 96 93 96 101 100 99 100 98 99 101 95 88 92 94 91 92 97 100 101 97 93 97 101 89 70 63 62 56 43 32 23 11 -3 -1 25 61 87 97 98 99 101 100 100 101 101 99 99 99 99 100 101 101 99 100 99 97 95 94 93 94 95 97 97 95 94 95 96 95 92 87 88 94 96 92 93 97 102 101 98 97 98
96 98 96 93 90 88 94 100 99 99 101 99 98 101 99 95 95 97 97 97 96 98 100 99 97 99 95 82 72 70 63 49 37 27 19 18 21 21 30 58 86 96 97 100 101 100 100 100 99 99 101 101 100 100 100 100 100 98 96 96 95 95 96 98 99 98 95 92 94 97 97 97 95 88 85 89 88 86 91 98 100 98 97 99 98
94 93 89 89 88 85 90 99 100 98 100 100 98 99 100 98 95 94 98 102 99 97 99 100 98 98 94 86 76 64 50 41 38 31 26 36 51 56 59 73 90 97 99 100 99 100 100 99 99 100 100 99 99 100 100 100 99 98 98 98 97 96 97 97 95 93 91 91 94 95 95 98 95 83 78 82 83 83 88 94 97 98 99 99 97
89 87 82 84 87 84 86 96 100 99 99 100 100 99 100 101 97 91 92 100 102 99 100 102 100 97 92 79 64 51 40 42 59 70 61 49 53 68 83 93 97 99 101 101 100 100 99 99 99 100 99 99 99 100 101 100 98 99 99 96 92 92 93 91 89 88 88 89 90 90 93 94 86 73 71 76 78 79 84 89 94 99 100 98 96
85 83 76 76 82 82 82 90 98 100 99 99 101 100 98 100 102 93 87 96 104 102 100 100 101 101 90 72 70 77 63 48 68 99 97 75 71 86 98 100 98 99 101 100 100 100 99 99 100 99 99 100 100 100 101 100 99 100 98 93 91 89 88 87 86 85 87 88 88 90 91 85 71 64 69 75 76 78 82 86 92 97 98 95 92
81 80 73 68 72 77 79 84 91 98 101 99 99 101 99 99 102 98 88 87 92 95 94 91 96 105 95 74 82 107 100 73 75 98 103 94 93 98 99 98 99 101 101 100 100 100 99 100 100 99 99 100 99 99 100 99 100 101 97 91 89 86 85 87 89 89 90 88 86 86 83 74 66 67 74 79 81 84 87 89 94 97 97 93 88
76 77 71 63 62 66 71 77 82 91 100 100 98 101 101 98 100 102 96 85 79 77 75 72 77 90 86 65 65 90 103 97 95 99 98 97 98 98 99 101 100 99 100 101 101 100 100 100 100 99 100 100 99 99 99 100 101 100 94 92 93 92 92 96 98 98 98 95 90 83 75 69 72 79 82 84 88 90 92 95 99 99 94 88 84
70 70 68 62 57 56 60 67 72 80 93 100 100 99 101 100 99 100 101 98 88 75 65 59 60 73 84 80 73 82 96 101 100 98 98 99 99 99 100 101 99 99 100 100 99 99 100 99 99 99 99 100 99 99 100 101 100 95 92 95 98 98 99 100 100 100 100 99 94 85 76 75 81 85 87 90 92 93 95 98 99 96 89 83 82
63 63 61 59 55 51 52 57 62 68 80 93 100 100 99 100 101 99 98 101 100 92 84 74 64 70 90 100 96 95 99 99 98 100 101 101 101 100 99 100 101 101 100 99 99 100 99 98 98 99 99 99 99 99 100 101 99 95 95 98 100 100 100 100 100 99 96 93 90 85 81 82 85 87 89 92 93 95 97 99 95 89 83 81 84
54 57 55 53 50 48 47 49 53 58 66 77 91 100 101 99 100 101 99 100 100 100 100 96 84 81 92 101 100 99 101 100 98 100 100 99 99 100 100 100 100 100 99 100 100 99 98 98 99 100 100 100 100 101 101 101 99 97 98 100 100 100 100 100 98 92 86 84 86 86 88 90 91 91 93 94 95 97 99 96 90 85 81 82 87
42 48 50 48 45 43 43 43 45 49 56 63 75 90 99 100 99 99 99 100 100 99 100 100 97 94 97 101 101 100 101 100 99 100 99 100 101 101 101 100 99 99 100 100 99 99 100 100 100 101 101 101 101 100 100 100 99 99 100 100 100 100 100 101 99 93 87 87 91 95 98 97 95 94 97 97 97 98 97 93 88 84 84 87 91
28 37 44 45 44 42 42 41 41 42 47 53 61 73 86 96 100 100 99 99 100 100 99 100 100 99 99 100 100 100 99 100 100 100 99 99 100 99 98 99 99 100 100 100 100 100 100 100 100 101 100 100 100 100 100 100 100 100 100 100 99 99 99 100 101 100 97 97 98 99 99 96 93 93 95 96 97 98 96 91 88 87 89 92 93
17 24 33 39 43 43 42 43 43 42 42 46 51 58 69 82 93 99 101 99 99 99 99 99 99 100 99 99 99 100 100 100 100 100 99 99 100 99 99 99 100 100 100 100 100 100 100 100 100 100 100 100 100 100 99 99 99 100 100 99 100 101 101 101 101 99 96 95 95 95 93 90 87 88 91 92 95 97 95 90 88 90 94 96 95
18 17 21 26 33 39 41 43 45 46 45 45 47 50 56 65 77 89 97 100 100 100 100 100 100 99 99 100 100 99 99 100 100 100 99 99 100 100 100 100 100 100 100 100 100 100 100 100 100 99 99 100 99 99 99 99 99 100 101 101 101 100 98 95 93 89 86 84 84 85 86 84 85 88 92 95 97 97 93 90 91 95 97 97 96
32 21 17 17 20 25 31 36 41 44 47 48 48 49 51 54 61 72 83 92 98 100 100 100 100 100 99 100 100 100 100 100 100 100 100 100 101 101 101 101 100 100 100 100 100 100 100 99 99 100 100 100 100 100 100 99 100 100 101 100 98 96 92 89 87 84 81 78 79 81 84 86 89 95 98 99 99 97 94 92 94 96 96 95 94
55 38 27 21 18 17 18 22 27 33 39 43 46 49 50 51 54 58 65 75 85 93 98 99 100 100 100 100 99 100 100 100 100 100 100 100 100 100 100 100 100 100 100 99 99 100 99 99 101 101 100 99 100 100 100 100 100 101 101 100 98 98 97 94 91 88 84 82 85 91 94 94 96 99 101 101 101 98 95 95 97 97 96 95 93
76 62 47 34 26 20 16 14 16 20 25 31 37 42 46 49 51 53 56 61 68 77 86 93 97 98 99 100 100 100 100 99 100 100 100 100 100 99 99 99 99 99 100 99 99 100 100 101 103 102 97 93 92 93 97 99 99 98 100 100 100 101 100 96 93 90 88 87 91 97 99 99 100 101 102 102 101 98 97 98 100 98 97 95 93
85 78 67 55 43 33 25 19 15 15 16 19 24 30 36 41 45 48 51 54 58 62 69 78 85 91 95 97 98 100 100 100 100 99 99 100 100 99 100 100 100 100 100 100 100 101 100 99 99 98 95 92 90 91 95 97 97 98 100 100 100 100 98 95 93 93 92 90 92 96 99 100 100 102 103 102 100 99 99 101 100 98 96 94 94
87 85 81 74 64 53 43 33 24 18 16 15 16 19 24 30 35 40 43 47 51 56 59 63 69 76 83 88 92 95 97 99 100 100 100 100 100 99 99 99 99 100 100 100 100 100 100 98 96 95 96 96 95 95 97 98 99 100 100 100 98 97 96 96 97 97 96 96 97 99 100 101 101 102 103 102 101 101 102 101 99 97 95 94 95
93 91 89 86 80 72 63 52 41 31 24 19 16 16 17 19 23 29 34 38 42 47 52 55 58 62 67 73 79 84 88 91 93 95 97 99 100 100 101 100 100 100 100 100 100 100 100 100 99 98 98 98 98 99 100 100 99 98 97 95 95 95 96 98 99 99 99 100 100 99 100 101 102 103 102 102 102 103 101 99 97 95 94 95 97
100 96 92 88 87 84 79 72 63 54 43 32 23 18 16 15 16 19 24 30 34 37 41 46 49 51 54 58 62 67 73 79 83 87 90 92 93 94 96 97 98 99 99 99 100 100 99 100 100 99 99 99 99 99 98 97 95 94 94 95 96 98 100 101 101 101 100 101 101 101 101 101 102 102 101 102 102 101 97 96 95 94 94 95 92
102 100 95 89 85 84 82 80 77 73 66 56 43 32 23 18 16 15 17 21 25 29 34 38 40 43 45 47 49 51 55 60 66 72 77 82 85 88 88 88 88 89 89 90 91 91 92 92 93 92 92 92 91 90 89 89 88 90 93 97 100 101 101 101 101 101 101 101 101 101 101 101 101 101 101 101 100 97 95 95 95 93 92 89 81
102 101 99 95 89 85 82 80 79 80 79 75 68 59 46 33 23 18 16 16 17 21 25 29 33 35 37 38 40 42 43 45 47 51 56 61 67 73 78 81 82 82 82 81 80 80 81 81 82 84 85 86 87 87 87 87 88 91 94 97 100 101 101 101 100 100 100 101 101 101 101 101 101 101 101 99 97 95 95 94 92 90 86 79 70
104 103 102 100 98 94 89 85 83 82 81 81 81 79 73 61 47 34 23 17 15 17 18 20 24 27 29 32 34 36 37 38 39 40 42 44 48 51 56 61 66 70 72 73 73 73 73 73 75 76 79 82 85 87 89 90 91 92 94 96 98 98 99 99 100 101 102 103 103 103 102 100 98 98 99 98 97 96 94 91 88 85 79 70 61
Wind_Speed
40 41 43 44 44 44 45 45 46 45 44 44 43 43 44 45 47 49 51 54 56 57 59 60 61 62 62 62 62 62 61 60 60 59 59 61 65 68 68 66 65 62 60 58 58 59 60 60 59 60 60 59 58 59 58 57 57 55 54 53 51 48 46 44 43 42 43 43 43 43 41 40 39 38 38 38 39 39 38 37 37 38 40 42 41
41 43 44 45 46 45 46 46 46 46 45 43 42 42 43 44 45 47 48 51 54 56 58 60 63 64 65 65 65 64 63 62 62 61 60 59 61 66 69 68 66 65 63 60 59 59 59 60 59 58 60 59 56 57 58 57 56 55 53 52 51 50 49 47 46 46 45 44 44 43 42 40 39 38 39 39 39 39 38 37 38 39 41 42 41
42 44 45 46 47 46 46 47 46 46 45 43 42 42 42 42 43 44 46 47 51 54 56 58 61 64 65 66 67 67 66 64 64 63 62 61 60 62 66 69 68 66 65 63 60 58 57 59 60 59 61 60 56 55 57 57 56 55 52 52 52 52 53 51 49 48 47 46 45 44 42 41 40 40 40 39 38 38 37 38 39 40 41 41 42
43 45 46 46 47 47 47 47 46 45 44 43 42 41 41 41 42 42 43 45 48 51 53 54 56 58 60 63 67 68 68 67 66 65 64 63 62 60 62 67 70 68 66 64 61 57 54 56 60 60 62 61 57 56 57 57 56 54 52 53 53 53 54 53 51 48 47 47 46 44 42 41 41 40 39 38 37 37 37 38 39 40 40 41 42
43 45 46 46 47 47 47 47 46 45 43 42 41 41 41 41 42 42 43 44 47 50 50 50 50 50 52 55 61 66 69 69 68 67 66 65 64 62 61 64 69 70 67 65 62 58 55 57 61 61 61 60 57 56 57 56 56 54 53 52 53 52 51 52 50 44 43 46 46 43 42 42 41 40 38 37 37 37 38 38 39 40 40 41 42
44 46 46 46 46 46 47 46 45 44 43 42 41 42 41 41 42 43 44 45 47 49 49 47 47 46 45 47 52 58 64 68 68 68 68 67 66 64 62 61 66 70 69 66 63 60 58 60 61 58 58 59 57 55 55 56 55 54 53 52 53 52 50 51 48 40 37 42 43 42 42 41 41 40 39 39 39 39 38 38 39 40 41 42 43
44 45 45 45 45 46 46 46 45 44 43 42 42 42 43 43 44 45 45 46 48 50 49 47 46 45 43 44 47 51 56 61 66 67 68 69 67 66 64 62 63 69 70 67 65 62 59 58 56 53 53 55 55 54 54 55 55 54 53 53 53 51 50 50 48 42 41 44 43 40 41 42 42 42 43 42 41 39 38 39 40 40 41 42 42
43 43 44 44 44 45 45 45 44 44 43 43 43 44 45 45 46 47 47 47 49 51 50 49 48 46 45 45 46 48 50 54 60 63 65 68 69 67 66 64 62 67 70 69 66 63 59 55 53 52 53 53 53 54 55 56 55 54 53 54 53 52 51 50 49 46 43 43 44 43 43 44 43 44 43 41 38 37 38 39 39 40 41 42 42
41 41 41 42 43 44 44 44 44 44 44 44 45 46 47 48 48 49 49 49 50 51 51 50 50 48 48 48 47 49 49 50 53 56 59 65 69 68 67 66 64 65 69 70 66 64 60 55 53 54 55 54 53 53 57 57 56 55 53 52 52 51 49 49 48 44 40 41 44 43 40 40 39 38 37 36 36 37 38 38 39 40 42 42 41
40 39 40 41 42 42 42 43 44 44 45 45 47 48 50 51 51 50 49 50 52 52 51 51 51 51 51 51 50 50 50 49 49 50 53 60 67 70 68 67 66 65 68 71 68 64 61 56 54 54 55 55 53 53 58 59 56 54 52 50 49 47 46 45 41 39 40 43 44 41 40 39 37 34 34 34 36 38 39 40 41 42 42 41 40
40 39 40 41 41 41 42 43 44 45 45 46 48 50 51 52 52 50 49 51 53 52 51 50 50 51 52 53 52 52 51 50 49 48 48 54 64 70 70 69 68 66 67 70 68 64 61 57 56 56 55 54 53 53 57 58 55 54 51 49 48 46 45 43 38 40 44 42 37 38 40 41 39 37 36 36 38 40 41 41 42 42 41 41 40
41 40 40 41 41 42 42 43 44 45 46 47 48 50 51 51 49 48 49 51 53 52 50 50 50 50 51 53 53 53 52 51 50 48 47 50 59 68 70 70 69 66 67 69 68 64 62 61 60 58 55 54 54 54 55 54 54 54 52 49 48 46 45 42 40 43 44 39 34 32 33 36 37 36 38 40 41 41 42 42 42 41 41 41 40
41 40 40 41 42 42 42 42 43 44 45 47 48 47 46 45 44 44 46 49 51 51 50 50 50 50 51 53 53 53 54 53 50 49 48 48 55 65 70 71 69 66 66 68 68 65 64 64 63 59 55 53 52 54 56 55 54 53 51 48 45 45 44 40 39 41 40 38 38 35 35 38 36 35 38 41 41 42 42 42 42 41 41 41 39
40 40 40 41 42 42 42 41 41 42 43 43 42 40 38 37 37 40 43 46 48 50 50 51 52 52 52 53 53 54 55 55 51 50 49 48 51 60 69 70 69 68 67 68 69 67 67 66 62 56 54 52 51 54 57 56 53 52 51 48 44 43 44 41 39 41 41 42 44 43 44 45 40 38 40 40 40 41 41 41 41 41 41 39 37
39 40 41 42 42 42 41 39 38 37 37 36 34 33 32 33 36 39 43 46 48 50 51 52 53 54 53 53 54 54 56 55 52 51 51 49 49 57 66 70 69 69 68 69 70 70 68 64 59 56 56 55 53 55 55 51 50 50 50 48 45 43 44 42 42 43 44 45 46 45 46 47 44 43 42 40 40 41 41 41 41 41 40 37 35
39 41 42 42 42 41 40 37 34 31 30 29 29 30 32 35 38 41 44 47 49 50 52 53 54 55 54 54 54 54 54 53 52 51 51 49 49 54 64 69 70 70 70 70 71 71 68 63 57 55 56 56 56 56 52 47 46 47 48 49 50 48 47 46 45 44 43 44 46 45 45 45 44 43 42 41 41 41 41 41 41 39 37 35 35
40 41 43 43 41 39 36 32 28 27 26 27 28 31 34 37 40 42 44 47 49 50 52 52 53 52 50 49 50 51 50 50 50 51 50 50 51 54 62 69 70 71 72 71 70 71 67 59 53 51 52 54 55 52 48 47 48 49 49 51 52 53 53 50 46 43 43 45 45 42 41 41 42 42 41 41 41 40 40 40 39 37 35 34 36
41 42 43 41 37 33 30 26 25 25 26 28 29 32 36 39 42 44 46 47 49 50 49 48 47 45 43 44 45 46 47 48 49 49 49 51 52 54 62 69 71 72 72 69 69 69 64 53 47 46 46 48 49 46 45 48 50 51 53 52 50 50 49 47 44 43 44 44 41 40 40 41 41 41 41 40 39 38 38 38 36 35 35 36 37
40 41 39 34 28 24 23 22 23 24 26 28 30 33 37 41 43 44 46 46 45 45 45 45 44 41 40 42 43 42 44 48 48 47 49 51 52 54 62 69 71 71 72 70 67 64 60 55 51 46 43 43 45 45 46 48 50 52 53 52 50 49 45 43 43 43 43 42 42 42 43 42 41 40 39 38 37 36 36 34 33 34 36 37 38
39 37 32 26 22 20 19 19 22 24 25 27 29 32 35 38 39 41 41 40 40 40 41 43 43 40 39 42 43 42 44 47 47 46 49 51 52 55 62 68 70 70 71 70 66 61 59 60 56 50 47 47 47 47 48 48 48 49 49 49 49 47 44 43 44 44 43 43 44 44 43 41 39 38 37 35 34 33 32 31 32 34 35 36 36
34 30 25 23 21 18 17 19 22 24 24 25 26 30 33 34 35 35 36 37 40 40 39 41 43 41 38 41 43 42 43 46 46 47 50 51 51 55 61 67 69 68 67 67 65 59 57 58 57 54 54 53 50 47 48 47 45 43 44 48 48 45 43 43 44 44 44 44 44 43 40 38 37 35 34 34 33 31 30 30 31 32 33 33 33
27 24 23 22 18 15 17 20 22 23 22 22 25 30 32 31 30 31 32 34 37 37 36 39 42 41 38 39 42 42 43 45 46 47 51 51 51 55 62 67 68 65 62 61 61 57 53 54 55 55 55 53 49 48 48 47 47 45 43 44 45 43 43 44 44 44 44 43 42 39 36 35 34 34 34 33 31 30 30 29 30 30 30 30 31
22 22 22 18 14 14 17 20 21 22 22 22 25 29 28 25 25 26 27 28 30 30 31 35 39 40 39 39 40 41 43 45 46 49 51 51 52 57 63 66 65 62 57 55 55 53 50 50 49 48 48 49 49 51 52 51 49 49 47 44 42 42 43 43 42 41 40 39 37 35 34 34 34 34 33 32 30 30 29 28 27 27 28 29 30
19 21 19 14 11 13 18 21 21 21 22 23 25 25 22 20 21 21 20 20 21 24 28 31 34 37 38 38 39 42 45 47 48 50 51 52 54 60 64 64 63 59 54 51 50 48 47 47 46 45 47 50 52 52 53 52 49 48 47 45 43 42 41 40 38 37 36 35 35 35 34 34 35 34 32 30 30 29 29 28 27 27 28 29 29
18 19 16 13 11 13 17 21 21 20 22 24 23 20 17 16 14 11 10 10 12 17 24 28 31 34 35 36 40 44 47 48 49 50 51 53 57 62 66 65 62 57 52 51 52 52 49 48 48 49 52 55 55 51 49 49 50 48 46 44 42 41 40 39 38 36 36 36 35 35 35 35 35 33 31 31 31 30 30 30 29 30 30 30 31
18 18 14 11 10 12 16 21 21 19 22 24 20 14 13 11 4 8 9 10 12 14 19 25 28 31 34 38 43 46 47 48 48 49 51 53 57 64 68 67 62 54 50 53 57 57 54 53 53 54 55 57 55 50 46 47 49 48 46 45 44 42 40 39 37 36 35 35 35 35 36 36 35 33 32 32 32 32 32 32 33 33 33 33 33
17 16 12 9 9 11 16 19 19 19 21 22 17 10 7 3 7 12 12 11 13 13 16 21 24 29 35 40 42 43 45 47 48 49 51 52 57 65 68 66 60 50 45 50 54 54 53 54 54 53 53 54 52 50 50 50 48 47 45 44 42 40 37 35 34 33 32 33 34 35 36 36 35 34 34 34 34 33 33 35 35 35 35 35 36
17 14 9 8 9 10 14 18 18 18 20 19 14 7 3 8 12 14 13 12 14 16 17 19 22 28 34 38 39 40 44 46 46 47 50 52 57 64 66 64 59 48 42 46 50 49 51 54 53 51 51 51 52 52 52 51 48 45 42 39 36 35 33 32 31 31 31 32 34 35 37 37 36 36 36 37 36 34 34 35 36 36 36 37 37
15 11 8 8 8 9 13 16 17 17 18 17 13 5 5 11 14 15 14 13 13 16 18 19 23 28 31 34 37 40 43 45 44 45 50 54 57 61 63 63 57 47 43 45 47 47 51 52 49 47 47 48 50 50 49 48 45 42 38 35 33 33 32 31 31 31 32 33 34 35 37 38 38 38 39 39 38 36 36 36 36 36 37 38 38
13 11 9 8 7 8 11 15 15 15 15 14 12 6 5 11 14 15 16 16 15 15 18 20 23 26 29 33 37 40 43 44 42 44 50 54 56 59 59 57 52 46 43 46 48 47 49 48 44 44 45 46 47 47 45 43 40 38 35 34 33 33 32 32 32 32 33 34 35 36 38 39 39 39 40 40 39 38 38 38 37 37 38 39 40
12 11 10 8 7 7 9 12 14 14 13 11 10 8 5 10 13 11 14 18 18 16 20 26 28 27 28 32 36 37 39 42 45 46 48 51 55 57 54 52 51 47 44 45 44 42 43 43 42 42 43 43 43 43 42 40 38 35 33 32 31 31 32 32 33 34 35 36 37 38 38 39 39 40 39 39 39 39 39 39 38 39 40 41 42
12 11 10 9 8 7 7 10 12 13 12 10 7 8 7 9 13 10 10 16 19 20 26 32 31 30 32 37 38 35 34 41 46 47 49 54 58 56 53 53 52 47 42 42 40 37 38 42 42 40 40 40 40 41 42 39 36 33 30 28 28 29 30 31 33 34 35 37 38 39 38 38 38 38 37 38 38 39 40 40 41 42 42 42 42
11 11 11 10 8 7 6 8 10 11 12 11 6 5 7 8 13 13 11 13 17 22 29 32 32 33 38 41 42 39 36 39 45 46 49 54 56 53 52 52 49 42 38 40 41 39 39 42 41 38 37 40 42 43 41 37 33 31 28 27 27 27 27 28 29 31 34 35 36 36 36 36 36 36 36 37 37 38 40 41 43 43 42 41 41
10 10 11 10 9 8 7 5 7 9 11 12 8 5 6 8 12 16 16 15 17 21 29 31 31 33 35 36 40 42 38 38 43 49 50 52 53 51 48 46 42 41 41 42 42 43 44 46 45 41 39 41 44 43 39 35 33 31 29 28 27 27 28 29 30 31 34 35 35 34 35 35 36 36 36 36 37 38 40 42 42 42 41 41 41
11 10 10 10 10 9 7 5 5 6 8 10 10 8 7 8 11 15 18 19 19 23 28 29 29 35 38 35 33 36 36 35 42 49 52 53 54 50 42 39 41 46 48 48 48 47 46 46 45 43 42 44 46 43 38 35 33 32 31 30 30 30 31 32 32 33 34 36 36 36 35 35 35 35 36 37 38 40 41 41 41 41 42 42 42
13 11 10 10 10 10 9 7 4 4 4 7 9 10 9 9 12 15 17 19 20 22 25 25 26 33 37 31 24 28 36 42 48 51 49 46 46 44 43 45 47 47 47 49 49 47 45 43 42 41 43 44 43 39 35 33 34 35 34 32 30 30 31 32 34 36 37 38 38 36 35 35 35 36 37 39 39 40 41 41 41 42 42 42 42
16 13 11 10 9 10 10 9 7 4 3 3 5 8 9 10 12 15 18 20 20 21 23 24 25 27 28 25 22 29 39 46 49 48 43 41 42 44 44 46 46 45 45 46 44 43 44 42 39 37 37 37 36 35 34 34 36 36 33 30 28 29 30 33 36 38 38 37 36 35 35 35 36 37 38 39 40 40 41 42 42 43 42 42 42
17 16 13 11 9 9 10 10 9 7 5 3 2 3 6 9 11 13 17 20 22 22 22 24 26 27 26 24 26 30 35 37 40 43 43 43 46 47 45 42 42 43 45 45 44 44 44 42 38 37 38 38 37 37 37 37 36 34 30 28 28 29 30 32 35 37 37 36 36 35 35 36 37 38 39 40 41 41 42 42 43 43 43 43 43
16 17 15 13 10 9 9 9 9 9 8 6 5 3 0 4 8 12 14 17 21 23 23 24 26 28 28 27 27 29 30 30 32 35 36 38 42 45 45 45 45 45 45 45 46 46 46 45 43 43 43 41 38 37 36 34 32 30 28 28 29 30 30 30 31 33 35 37 37 37 37 37 39 39 40 41 41 42 43 44 44 44 43 43 43
14 15 16 15 13 11 9 8 8 9 9 8 7 6 4 2 3 8 11 14 17 20 22 25 27 28 30 30 29 30 29 29 31 32 33 34 38 42 45 47 47 44 43 43 42 41 41 41 40 40 38 36 36 35 33 29 28 29 30 32 34 34 33 32 32 32 33 35 37 38 39 39 39 39 40 41 42 43 45 46 45 44 43 43 43
11 13 14 15 15 14 12 9 8 8 9 9 9 8 7 6 5 4 7 11 14 16 19 21 24 27 30 31 32 32 31 32 33 34 33 33 34 37 42 45 45 42 41 41 40 38 36 35 35 35 35 34 33 32 30 29 31 34 36 38 37 36 35 34 33 33 34 35 37 39 40 39 39 39 40 42 44 46 47 46 45 44 43 43 43
10 10 11 12 13 14 14 13 11 9 9 9 9 9 9 9 9 7 7 8 10 13 16 18 20 23 26 29 31 32 33 34 35 34 34 33 33 34 36 37 38 38 38 38 38 38 36 36 35 35 34 33 33 32 32 34 36 38 39 38 37 37 36 36 35 35 36 36 37 38 39 40 41 42 44 45 47 48 47 46 44 43 43 43 44
9 9 9 10 10 12 13 14 13 12 11 10 9 9 10 11 11 11 10 9 10 11 13 15 17 19 21 24 26 29 31 33 36 37 37 36 36 36 36 36 36 36 37 37 37 38 38 38 37 36 35 35 35 36 37 39 39 40 40 39 39 39 39 39 38 38 39 38 39 39 41 43 44 45 47 48 49 48 46 44 43 43 43 43 44
9 9 9 9 9 10 10 11 12 12 12 12 11 11 10 11 12 13 13 13 12 12 12 13 15 17 18 20 22 24 26 29 32 34 36 38 38 38 38 38 39 40 41 41 41 40 40 39 38 37 36 37 38 39 41 42 42 42 42 42 42 43 42 42 42 41 41 41 41 42 44 45 47 48 49 49 48 46 44 43 42 42 42 43 43
9 9 9 9 9 9 9 9 9 10 11 12 12 12 12 12 12 13 14 14 15 14 14 14 15 15 16 17 19 20 22 24 26 28 30 33 35 36 38 39 40 42 43 44 45 46 46 45 44 43 43 43 43 44 46 47 47 47 47 46 46 45 45 44 43 43 43 43 44 45 46 47 48 48 48 46 44 43 42 41 41 41 42 42 42
9 8 8 8 8 8 8 8 7 8 9 10 11 12 13 13 13 14 14 15 16 16 16 17 16 17 17 17 17 17 18 20 22 24 26 28 30 32 34 35 37 38 40 42 44 45 46 47 48 48 48 48 48 48 49 49 50 51 50 48 46 45 44 44 43 43 44 45 46 46 47 46 46 45 44 42 42 41 41 41 41 41 41 41 41
11 9 8 8 7 7 8 7 6 6 7 8 9 10 12 13 15 15 15 16 16 17 18 18 19 19 19 19 19 19 19 19 20 21 23 25 27 29 31 32 34 35 36 37 38 39 41 42 43 45 46 46 47 47 47 48 48 48 47 45 44 43 43 43 43 44 45 45 45 45 44 43 42 41 41 40 40 40 39 40 40 40 40 40 40
13 11 10 8 7 6 7 6 6 5 5 6 7 9 10 12 13 15 17 18 18 18 18 18 19 20 21 21 22 22 22 22 22 22 23 23 24 26 28 29 31 33 34 35 36 36 37 38 39 40 40 41 41 42 42 42 42 43 42 42 42 43 43 43 44 44 44 43 42 42 41 41 40 40 40 40 39 39 39 39 39 39 40 40 39
13 13 12 10 8 7 7 6 6 5 5 5 5 6 7 9 10 12 15 17 19 20 20 20 20 20 21 22 23 23 24 24 25 25 26 26 26 27 27 28 29 30 31 32 33 34 34 35 36 36 37 38 38 39 39 39 40 40 41 41 42 42 42 42 41 41 41 40 40 40 40 40 40 40 39 39 39 38 38 38 38 39 38 38 36
12 13 13 12 11 10 8 7 7 6 6 6 5 5 6 7 7 9 11 14 16 19 21 22 22 22 21 22 22 23 24 25 25 26 27 28 28 29 29 30 30 31 31 32 32 33 33 34 34 35 36 36 37 37 38 38 39 39 40 40 40 39 39 39 39 39 39 39 39 39 39 39 39 39 39 38 38 38 37 37 37 37 36 35 34
11 12 12 12 12 12 11 10 9 8 7 7 6 6 6 6 6 7 8 10 12 15 18 20 22 23 24 24 24 23 24 24 25 26 27 28 28 29 30 30 31 31 32 32 33 33 34 34 35 35 36 36 36 37 37 38 38 38 38 38 38 38 38 38 38 38 38 38 38 38 38 38 38 38 38 37 37 36 35 35 35 35 34 33 32
Wind_Direction
266 264 264 263 261 259 258 258 259 259 259 258 257 256 256 254 253 252 251 251 250 248 247 246 245 245 244 244 243 242 240 240 239 239 238 235 231 228 229 229 230 231 230 231 233 233 233 232 230 233 237 238 238 238 239 241 242 242 243 243 243 243 244 247 248 250 250 251 252 254 255 257 259 262 265 267 269 271 274 276 278 280 281 284 286
266 264 263 263 262 260 258 258 259 260 260 260 259 258 258 258 256 255 254 253 251 249 246 245 243 242 242 242 242 241 240 238 237 237 237 236 233 229 228 227 228 230 230 231 232 233 236 233 227 230 235 236 237 238 238 240 241 241 243 243 244 244 243 244 246 248 250 251 252 254 255 256 258 260 263 266 268 271 273 275 277 279 281 284 286
266 264 263 263 263 261 259 259 259 260 261 261 261 259 259 260 261 260 260 258 255 252 248 245 243 241 239 239 240 240 239 237 236 236 235 235 234 231 228 226 227 228 228 230 231 232 236 233 224 225 233 235 235 237 237 238 240 241 242 243 243 244 245 245 244 245 248 250 252 253 255 257 258 260 262 265 267 270 272 275 277 278 280 283 284
267 265 264 264 264 263 261 261 260 261 262 262 261 260 260 263 264 265 265 263 259 255 251 248 245 242 240 239 238 238 239 237 235 234 234 233 232 231 228 225 225 226 226 228 230 231 232 229 223 224 231 233 234 236 237 238 239 240 241 243 244 245 247 247 246 246 247 249 251 253 255 257 258 260 261 264 266 269 272 274 276 277 280 282 283
270 268 267 265 265 265 263 262 261 261 262 261 261 261 261 263 266 268 267 264 259 255 252 249 248 246 243 241 239 237 237 237 235 233 232 231 230 229 228 225 224 224 225 226 227 227 226 226 225 227 230 231 232 234 236 237 238 239 241 242 244 244 245 247 247 246 246 248 249 251 254 256 258 259 260 263 265 267 270 273 275 277 279 281 282
273 272 271 269 267 266 265 264 263 262 262 261 261 262 262 263 266 268 267 262 255 251 249 248 249 248 245 243 243 240 238 237 235 233 231 230 229 227 226 225 223 222 223 224 225 225 225 226 226 227 230 231 230 232 235 236 237 239 241 242 243 244 244 245 246 242 241 245 248 250 253 255 257 258 260 262 264 266 269 272 274 276 278 279 281
276 276 275 273 270 268 266 265 263 262 261 261 261 262 263 264 265 266 266 260 250 245 246 247 248 248 246 243 244 244 242 239 236 233 230 229 228 226 224 223 222 221 221 222 224 224 225 226 225 224 227 229 229 230 232 234 236 238 241 243 243 242 240 242 244 241 238 244 248 250 254 257 257 259 260 261 264 267 270 272 273 275 277 278 280
279 279 278 275 272 270 268 266 264 262 261 262 262 263 264 265 265 265 264 257 245 240 243 246 247 248 247 244 243 244 245 242 238 235 231 228 227 225 223 221 221 220 219 220 223 223 222 223 223 223 224 225 227 229 230 232 234 236 239 242 243 242 241 243 246 244 242 246 250 251 253 256 257 258 259 261 264 266 269 270 272 275 276 278 281
284 282 280 276 274 272 270 268 265 264 263 262 264 265 266 266 266 264 261 253 242 236 239 243 244 246 246 246 244 243 244 244 241 237 232 228 225 224 221 220 219 219 217 218 221 221 220 220 221 222 223 224 227 230 230 230 232 234 238 241 243 244 244 244 246 247 244 243 247 250 252 253 255 257 258 260 263 265 267 270 272 274 276 279 282
288 285 281 278 276 274 271 269 267 265 264 264 265 266 266 266 266 263 258 250 240 235 237 239 240 242 243 245 246 244 243 243 242 238 233 227 224 222 220 218 217 217 216 216 219 220 219 219 221 221 221 223 227 231 229 227 228 232 235 239 241 242 242 242 241 242 241 239 242 247 250 251 254 256 257 260 262 264 267 269 271 274 276 280 283
291 288 284 281 279 276 273 270 268 266 266 265 265 265 266 266 265 261 254 245 238 234 235 237 237 238 240 243 245 246 244 242 241 239 233 227 223 221 218 216 215 216 215 215 217 218 218 219 220 220 220 224 228 229 226 225 227 230 233 236 238 238 237 237 231 230 234 237 241 249 253 252 253 254 256 259 261 263 266 268 270 274 278 281 282
291 289 286 284 281 279 275 272 270 268 267 266 265 266 266 266 263 258 250 242 237 235 236 236 236 237 240 242 244 245 245 242 239 238 234 227 222 219 217 215 213 214 214 213 215 216 216 217 218 219 220 225 228 227 224 225 227 230 232 235 237 236 236 235 231 231 235 237 242 249 252 251 251 253 254 256 258 261 263 265 270 274 277 280 280
291 290 288 287 285 282 279 275 272 270 268 267 266 266 266 264 260 254 249 243 239 238 239 240 240 240 241 242 242 243 244 242 238 236 234 229 222 218 215 213 212 212 212 212 213 214 214 216 218 218 220 225 228 227 225 226 227 229 231 232 233 234 234 230 228 232 236 239 241 240 238 242 250 254 254 254 256 259 261 265 269 273 276 279 278
292 292 292 291 289 286 282 278 275 272 269 268 267 266 265 261 257 254 251 248 244 243 244 245 246 245 244 244 244 243 243 243 238 233 232 230 224 217 214 212 210 209 210 210 211 212 213 215 216 217 220 224 227 225 224 225 226 226 228 228 226 229 230 225 223 226 229 235 240 239 237 242 249 252 253 255 256 258 262 266 269 273 277 278 277
293 294 295 295 292 288 285 282 279 274 271 270 268 266 263 259 256 255 252 250 247 246 248 249 249 249 247 246 246 244 242 241 238 232 229 228 224 217 212 210 208 207 208 208 209 210 211 211 213 216 220 223 224 220 219 222 224 224 226 225 223 226 229 226 226 230 233 237 242 243 243 244 245 249 253 255 256 259 263 267 270 275 278 278 276
294 295 297 297 294 291 289 287 282 277 273 271 269 265 262 259 258 256 253 251 250 249 250 251 251 251 250 248 246 243 239 238 236 231 227 225 223 216 210 208 207 205 205 207 208 208 208 210 213 216 220 223 221 215 211 211 215 220 224 225 226 229 232 231 233 238 240 243 245 244 244 244 245 247 251 253 256 261 265 268 273 276 277 276 278
294 296 298 298 296 295 294 292 285 279 275 272 268 266 265 262 261 259 256 254 253 252 252 252 252 252 249 244 240 237 233 231 231 229 225 223 222 215 207 206 205 203 204 205 206 206 207 209 212 213 215 217 214 209 204 203 207 213 219 224 227 230 233 236 239 243 246 247 246 244 243 245 245 246 249 253 258 263 267 270 273 273 274 277 279
294 297 300 299 298 298 297 294 288 282 277 273 271 270 268 265 263 261 259 258 257 255 253 250 248 247 242 236 232 230 227 224 225 225 222 221 220 212 205 204 203 201 201 202 203 205 207 207 206 207 209 211 212 211 209 206 208 212 217 222 226 228 232 236 241 245 246 244 241 239 239 242 245 247 251 255 260 264 267 268 269 270 274 277 278
296 300 300 299 300 300 298 296 293 287 282 279 277 274 271 269 266 264 262 260 257 254 251 248 245 241 235 229 227 226 223 220 221 221 219 219 217 209 202 201 201 199 198 198 200 203 205 204 203 202 204 208 212 213 211 209 209 213 218 222 226 229 233 238 243 244 241 238 236 237 239 242 246 249 253 258 261 263 265 267 268 271 274 276 278
299 301 298 295 297 299 301 304 302 296 291 287 284 281 278 273 269 265 261 256 254 253 249 246 242 236 230 225 223 223 221 217 216 216 216 216 213 206 200 199 198 197 196 197 199 201 202 203 204 204 205 206 207 207 209 210 210 214 220 224 227 231 234 238 242 242 238 236 238 239 241 244 247 251 255 258 260 262 265 268 270 272 274 277 279
301 299 294 290 292 300 311 316 312 304 298 295 293 291 287 281 274 269 261 254 254 253 248 242 238 234 227 222 219 219 218 214 212 213 213 212 208 201 197 196 195 193 194 197 200 202 203 204 205 208 211 211 209 209 212 213 211 214 223 228 230 232 235 238 241 240 237 237 238 240 242 246 249 252 255 256 259 263 266 268 270 273 275 277 277
300 294 290 289 295 311 324 323 318 311 306 305 305 303 299 292 283 275 266 258 253 251 244 235 230 228 225 219 216 216 215 211 209 209 210 208 203 197 193 192 191 190 192 196 199 203 206 207 208 211 215 215 215 215 214 211 209 212 219 227 231 234 237 238 238 237 237 238 239 242 245 248 250 252 254 256 260 263 264 267 270 274 276 278 278
295 290 290 293 305 325 330 326 323 318 313 313 313 310 305 298 289 280 272 262 252 243 235 227 222 220 218 216 215 215 211 206 204 206 207 203 197 192 190 188 187 187 189 194 199 203 206 209 210 211 213 212 212 212 209 206 209 212 216 221 227 231 232 233 234 236 238 240 243 247 249 249 250 252 254 258 260 261 262 267 272 275 278 279 281
290 291 292 297 315 333 334 330 328 323 319 320 320 314 306 299 293 285 273 259 244 231 223 220 215 210 208 211 213 209 204 200 201 203 203 199 192 188 186 184 184 186 188 191 196 200 204 208 210 209 207 204 203 204 205 207 210 214 216 219 223 226 227 230 234 238 241 243 247 250 250 248 249 251 255 258 259 259 262 267 270 273 278 281 283
289 294 294 299 318 337 338 333 332 329 325 327 326 316 306 304 295 274 248 225 207 202 204 204 201 199 202 206 205 200 196 196 198 200 199 195 189 185 182 182 184 187 190 191 193 195 198 201 203 201 200 199 198 199 203 208 212 214 216 219 223 227 230 234 238 242 244 246 249 249 247 247 249 252 255 256 257 259 263 266 268 271 276 281 286
292 295 294 300 322 343 343 338 337 335 331 332 333 323 314 315 274 195 189 179 167 172 184 186 186 191 196 196 194 192 192 194 196 197 195 191 186 183 182 183 185 187 191 192 192 191 192 192 193 195 196 196 197 198 202 208 212 215 218 222 226 230 235 238 241 242 243 245 246 246 245 247 249 252 254 254 256 260 263 266 268 271 274 279 286
295 297 295 305 327 346 348 343 342 338 334 337 341 338 336 7 143 157 163 163 159 162 172 179 184 189 190 189 189 188 189 192 194 192 189 187 185 184 183 184 186 188 190 190 188 187 190 191 191 192 194 194 195 199 204 209 212 214 217 222 226 230 233 235 236 238 241 243 245 245 245 248 252 254 254 255 258 261 264 266 269 271 273 278 284
299 299 296 308 330 349 352 350 347 340 337 342 348 354 71 112 126 137 142 149 159 163 164 171 182 188 187 185 184 184 187 190 190 188 186 184 183 184 185 186 187 190 194 192 188 188 190 189 187 187 190 192 196 202 206 209 212 216 219 222 225 226 227 230 233 238 242 245 248 249 249 252 255 256 255 256 258 262 265 267 270 273 275 278 283
302 301 297 308 332 352 357 357 353 342 340 347 355 12 122 127 127 138 147 148 155 164 165 168 178 182 179 176 176 180 184 184 184 184 182 179 180 184 186 187 191 198 200 192 185 183 182 182 186 192 195 196 199 203 206 209 214 218 220 221 223 223 226 231 235 241 246 249 252 253 254 256 257 257 257 257 258 262 267 269 271 274 277 280 284
304 306 299 307 332 353 0 4 360 349 345 351 2 22 117 132 128 142 156 150 145 158 166 164 161 161 162 166 172 178 180 179 179 179 177 177 180 184 187 191 197 200 193 182 177 177 179 184 192 198 201 203 204 205 209 212 215 216 217 219 223 226 230 235 239 244 248 252 255 256 257 258 258 258 258 258 259 264 269 272 274 277 279 281 284
305 310 302 305 326 347 3 13 9 358 353 356 7 24 81 131 131 137 155 154 152 158 157 149 142 144 155 165 170 176 179 175 173 175 177 179 182 184 190 196 195 188 181 178 178 180 185 192 197 200 201 203 205 207 211 212 212 213 217 222 227 232 236 241 244 248 251 253 255 257 258 258 258 259 260 261 263 268 272 274 275 277 279 281 284
302 308 304 304 315 331 358 20 20 9 3 5 15 30 55 121 140 141 149 156 158 157 154 151 147 149 160 165 165 169 177 176 175 179 182 183 184 189 193 192 184 177 178 180 179 180 187 194 198 202 201 198 198 204 209 211 212 217 223 229 234 239 242 245 248 251 253 255 256 257 258 258 260 262 264 266 269 272 275 276 277 277 278 281 285
296 301 301 302 309 319 342 19 27 20 15 19 34 52 56 101 137 144 143 150 154 154 157 161 160 159 163 167 167 171 179 181 181 185 186 187 190 192 189 182 177 177 181 181 179 181 187 190 193 200 203 200 200 205 211 215 219 224 229 236 240 242 244 248 254 258 259 259 260 260 260 261 263 265 268 270 273 275 276 277 277 277 278 282 286
290 294 297 298 304 312 324 1 27 28 25 28 44 78 83 99 128 140 146 151 155 157 162 167 169 169 169 171 173 176 180 183 188 195 198 195 189 183 179 179 182 183 183 183 184 186 189 189 190 195 202 207 209 211 214 219 223 228 234 239 241 241 245 254 262 264 264 264 264 263 263 263 266 268 271 273 275 276 277 276 276 276 279 283 287
282 287 293 295 298 304 311 332 9 25 31 34 46 71 101 118 130 139 145 150 155 163 169 175 181 179 174 172 176 183 189 188 186 186 187 185 180 177 180 187 188 185 186 188 189 189 190 191 191 195 204 211 213 214 217 222 226 230 234 237 240 245 252 259 261 261 262 264 264 262 262 264 267 270 273 274 275 276 275 275 276 278 281 285 288
278 280 286 292 295 298 301 308 328 356 19 32 45 63 90 120 139 147 149 147 149 156 165 176 187 186 180 179 183 186 187 184 176 171 173 179 184 187 190 190 188 189 191 192 192 191 190 191 195 202 209 213 216 218 221 225 228 231 234 239 246 253 257 259 258 259 261 263 261 260 261 265 269 271 273 273 273 273 274 276 278 281 283 286 288
274 276 278 285 291 293 295 296 298 307 328 1 33 58 80 104 131 150 158 157 154 152 154 163 178 186 187 188 183 174 174 178 178 179 183 187 186 184 184 186 190 194 195 196 197 197 195 195 200 206 210 214 217 219 220 223 227 231 237 245 251 255 258 259 260 260 260 260 259 259 263 267 270 270 270 271 272 273 275 278 281 283 284 286 287
268 272 275 278 283 287 290 292 290 287 287 294 323 36 76 95 112 135 155 164 168 166 160 161 171 179 181 179 174 171 173 178 182 185 187 184 181 180 182 186 193 199 199 200 201 202 200 202 205 208 211 214 216 218 222 227 231 235 239 243 247 251 256 260 261 260 258 257 258 261 264 267 269 269 269 271 274 276 278 280 281 283 284 285 286
265 267 270 273 276 278 282 286 286 282 277 270 271 281 35 103 107 120 139 156 169 176 176 173 174 177 177 177 178 180 182 184 184 185 187 187 188 188 188 190 196 203 205 206 207 207 207 207 210 213 217 219 222 226 230 232 233 235 239 244 249 251 253 257 259 259 258 257 258 260 263 266 268 269 271 274 276 278 280 281 282 283 283 284 285
273 267 266 268 270 271 272 277 279 278 274 265 258 259 256 226 136 123 131 143 158 172 180 183 184 184 183 184 186 187 188 190 190 191 193 195 197 198 199 199 201 205 208 210 212 213 214 214 217 220 224 227 231 232 231 232 236 241 244 250 253 252 252 255 258 259 259 259 260 261 263 266 269 272 274 276 278 280 281 282 282 282 283 284 286
287 277 269 266 267 266 265 265 266 269 271 265 255 250 249 245 228 180 149 144 150 161 172 180 187 191 192 192 192 191 192 195 197 198 200 201 203 205 207 208 209 212 215 216 217 218 220 222 225 228 230 233 234 233 232 235 239 240 243 247 250 250 251 255 258 260 262 263 263 264 265 268 271 274 275 278 280 282 282 282 282 282 283 285 286
290 287 280 273 268 265 263 261 258 258 261 262 257 250 245 243 239 228 204 175 161 161 165 172 180 188 193 197 199 200 200 202 204 207 208 208 207 207 209 212 216 220 221 220 220 222 226 229 230 231 232 232 231 231 232 234 235 237 241 246 250 252 256 259 262 265 268 270 270 270 270 271 272 273 275 278 281 282 282 282 282 283 284 286 287
283 287 287 282 277 271 264 261 258 256 253 255 257 254 247 241 238 235 229 215 196 180 174 173 175 181 187 193 199 203 205 207 210 212 214 214 213 212 212 215 220 224 226 227 227 228 229 230 230 231 232 231 231 233 235 236 237 240 245 250 254 257 260 263 265 268 271 272 272 272 271 272 272 273 275 278 280 281 281 282 282 283 285 287 288
274 276 279 281 282 279 272 265 261 259 255 252 251 252 251 246 240 235 232 229 221 211 200 190 184 183 185 189 193 197 201 205 209 213 215 217 217 217 218 221 224 227 230 234 236 236 236 236 236 236 237 237 238 239 241 242 243 245 249 254 256 258 261 264 267 269 270 271 270 269 269 270 271 273 275 277 278 279 280 281 282 284 286 288 289
265 267 269 272 277 281 282 276 268 263 261 257 252 247 246 247 246 241 235 230 228 224 220 213 205 199 195 193 194 196 198 201 205 209 214 217 220 222 224 226 229 231 233 235 238 241 243 243 243 243 244 244 245 246 247 247 247 247 250 254 257 259 262 265 266 267 268 268 268 268 268 268 270 272 274 275 277 278 279 281 283 285 287 289 290
264 267 267 266 269 275 280 280 276 267 263 261 257 250 243 240 242 244 241 236 231 228 226 224 221 216 212 208 205 205 205 205 206 208 211 215 218 222 225 227 230 232 235 237 239 241 244 245 247 248 249 249 250 251 251 250 249 249 252 256 259 261 262 263 263 264 266 266 265 266 266 268 270 272 273 274 276 277 279 282 285 287 288 289 290
266 267 265 263 265 268 272 274 274 270 264 259 256 254 249 242 238 238 240 240 237 232 229 227 227 225 223 220 217 215 214 215 216 216 216 217 217 219 221 223 225 228 230 233 235 237 240 242 244 246 247 248 250 250 250 250 250 252 254 257 259 259 260 261 262 263 264 264 265 266 267 269 271 272 273 275 277 279 282 284 286 287 288 289 290
265 264 261 257 254 255 259 261 260 260 260 258 254 253 252 249 242 237 235 236 238 238 235 232 230 229 228 227 225 223 222 221 221 222 223 224 224 224 224 224 225 227 228 230 231 233 235 237 238 240 242 243 244 245 246 248 249 251 253 255 256 257 258 259 261 262 263 264 266 267 268 269 271 272 274 277 279 281 283 285 286 287 287 288 290
259 259 257 254 248 241 239 241 244 247 249 250 251 253 254 252 248 242 236 233 234 237 238 237 236 235 233 232 231 230 229 227 226 226 227 227 228 229 230 230 229 229 230 230 231 232 234 235 236 238 239 240 242 243 244 246 247 249 251 252 253 254 256 257 259 261 263 264 265 267 268 270 271 274 276 278 280 282 283 284 285 286 287 289 292
254 256 257 257 256 252 248 243 241 241 243 243 244 252 259 258 254 249 243 236 233 234 235 237 238 239 240 239 238 237 236 235 234 233 232 232 232 233 234 234 234 234 234 234 234 234 234 235 236 237 239 240 242 243 244 246 247 248 249 250 251 253 254 256 258 260 261 263 265 267 269 271 273 275 277 279 280 281 283 284 285 286 288 291 294
254 257 258 259 261 262 263 260 254 250 248 247 244 246 254 262 265 263 257 249 240 235 234 234 236 237 239 241 243 243 243 242 241 240 238 238 238 238 238 239 240 240 240 240 240 239 239 239 239 239 240 241 242 243 245 246 247 248 249 250 252 253 255 256 258 260 262 265 267 268 270 271 273 275 277 278 280 281 283 284 286 287 289 292 294